Погода в Дуакаре

Россия / Республика Дагестан     42°03′51″N   47°27′38″E
темп.,
°C
ветер,
м/с
пор.,
м/с
влажн.,
%
обл.,
%
осадки,
мм/ч
давл.,
гПа
погр.,
м
26 июня, вс
вс2600:00+11зюз4482100 0.4 101255
03:00+11юз2282100 0.7 101221
06:00+14ю117856 0.1 101046
09:00+16в3375100 0.4 1008491
12:00+20в475864 2.3 10061542
15:00+18в4574100 4.4 1006737
18:00+15св2293100 2.0 1007142
21:00+13зюз1188100 3.0 101011
27 июня, пн
пн2700:00+11зюз22895 0.6 101113
03:00+10юз32770 0.6 101117
06:00+14ююз22730 0.0 101138
09:00+19св22660 0.0 1009635
12:00+20св337229 0.6 1009986
15:00+18всв338037 2.1 1010709
18:00+15с229399 1.5 1011136
21:00+13зюз339295 2.8 101232
28 июня, вт
вт2800:00+12юз338072 0.0 101227
03:00+11юз43722 0.0 101124
06:00+14зюз32730 0.0 101145
09:00+18с32650 0.0 1009534
12:00+19ссв427221 0.8 1010882
15:00+18св328262 2.6 1011646
18:00+13ссз228868 0.7 1014342
21:00+10з22930 0.7 101612
29 июня, ср
ср2900:00+10зюз22940 0.0 101616
03:00+9юз22935 0.0 101613
06:00+12вюв01884 0.0 1016120
09:00+13всв328598 0.2 1016536
12:00+14всв338295 1.5 1016696
15:00+15всв227160 2.3 1016818
18:00+13всв227921 0.3 1016324
21:00+9ю119223 1.0 101811
30 июня, чт
чт3000:00+9юз22890 0.3 101712
03:00+9юз21861 0.3 101710
06:00+11ю01840 0.0 101682
09:00+15св328048 0.1 1014616
12:00+14всв3396100 2.1 1014409
15:00+11всв2299100 4.9 1015201
18:00+11св1199100 1.4 1016155
21:00+10сз1210097 1.8 101897